Location: Bovenkerk
(52.2915°N, 4.8336°E)
Time: 23:13:32
(UTC+00:00)

Cosmos 2181 Rocket - Pass Details

Date: 09 April 2020
Orbit: 952 x 1014 km, 82.9° (Epoch: 29 May)

Event Time Altitude Azimuth Distance (km) Brightness Sun altitude
Rises 19:28:39 0° 161° (SSE) 3,674 6.6 -9.3°
Reaches altitude 10° 19:31:19 10° 154° (SSE) 2,721 5.9 -9.7°
Maximum altitude 19:37:01 39° 88° (E) 1,415 4.5 -10.5°
Drops below altitude 10° 19:42:40 10° 22° (NNE) 2,705 6.4 -11.2°
Sets 19:45:18 0° 15° (NNE) 3,650 7.2 -11.6°
